Geneve-Cointrin Airport (GVA/LSGG)




Flight Aircraft Arriving
CPX1140 B738
EBLG - Liège Airport
Belgium Liege, Belgium
Flight Aircraft Departing
CPX1139 B738
EBLG - Liège Airport
Belgium Liege, Belgium
Airport Information
Location: Geneva, CH
Coordinates: 46.2381 / 6.10895
Elevation:
Time Offset:
Local Time:
UTC Time:
Jet A Price: $0.92/lbs

Current Weather
METAR: LSGG 230850Z 22007KT 9999 FEW007 02/M01 Q1001 NOSIG
TAF: TAF LSGG 230825Z 2309/2415 23005KT CAVOK TX04/2314Z TNM00/2406Z TX04/2415Z BECMG 2311/2313 24013G23KT 4500 RASN OVC015 BECMG 2323/2401 VRB02KT 9999 BKN040

Recent Arrivals
Date Flight Type Depart
09/21/2020 CPX1139 B738 Liège Airport (EBLG)
04/07/2020 CPX1139 B738 Liège Airport (EBLG)
11/27/2019 CPX1139 B738 Liège Airport (EBLG)
10/23/2019 CPX739 B738 Liège Airport (EBLG)
09/30/2019 CPX739 B738 Liège Airport (EBLG)
Recent Departures
Date Flight Type Arrive
04/09/2020 CPX1140 B738 Liège Airport (EBLG)
12/02/2019 CPX1140 B738 Liège Airport (EBLG)
10/26/2019 CPX740 B738 Liège Airport (EBLG)
10/02/2019 CPX740 B738 Liège Airport (EBLG)